Location: Goll?ig?dem
(16.6773°N, 80.7332°E)
Time: 05:21:15
(UTC+00:00)

Envisat - Pass Details

Date: 01 October 2021
Orbit: 764 x 766 km, 98.2° (Epoch: 23 October)

Event Time Altitude Azimuth Distance (km) Brightness Sun altitude
Rises 23:43:16 0° 6° (N) 3,221 6.3 -11.4°
Reaches altitude 10° 23:45:36 10° 4° (N) 2,295 5.5 -10.8°
Maximum altitude 23:50:35 63° 283° (WNW) 846 3.0 -9.6°
Drops below altitude 10° 23:55:34 10° 203° (SSW) 2,291 5.3 -8.4°
Sets 23:57:53 0° 200° (SSW) 3,216 6.0 -7.9°
